TimeMDT,TemperatureF,Dew PointF,Humidity,Sea Level PressureIn,VisibilityMPH,Wind Direction,Wind SpeedMPH,Gust SpeedMPH,PrecipitationIn,Events,Conditions,WindDirDegrees,DateUTC
12:53 AM,42.1,35.1,76,29.92,10.0,SE,6.9,-,N/A,,Clear,130,2013-05-07 06:53:00
1:53 AM,41.0,35.1,79,29.91,10.0,SSE,8.1,-,N/A,,Clear,160,2013-05-07 07:53:00
2:53 AM,43.0,37.0,80,29.88,10.0,SE,12.7,-,N/A,,Clear,140,2013-05-07 08:53:00
3:53 AM,39.9,36.0,86,29.88,10.0,SSE,5.8,-,N/A,,Clear,160,2013-05-07 09:53:00
4:53 AM,39.9,36.0,86,29.89,10.0,ESE,4.6,-,N/A,,Clear,110,2013-05-07 10:53:00
5:53 AM,37.9,35.1,89,29.90,10.0,East,5.8,-,N/A,,Clear,100,2013-05-07 11:53:00
6:53 AM,42.1,37.9,85,29.91,10.0,East,4.6,-,N/A,,Clear,100,2013-05-07 12:53:00
7:53 AM,50.0,42.1,74,29.90,10.0,SE,11.5,-,N/A,,Clear,130,2013-05-07 13:53:00
8:53 AM,55.9,45.0,67,29.88,10.0,SE,10.4,-,N/A,,Clear,140,2013-05-07 14:53:00
9:53 AM,60.1,45.0,57,29.88,10.0,SE,8.1,-,N/A,,Clear,130,2013-05-07 15:53:00
10:53 AM,62.1,45.0,53,29.88,10.0,ESE,9.2,-,N/A,,Clear,120,2013-05-07 16:53:00
11:53 AM,64.0,45.0,50,29.88,10.0,Variable,5.8,-,N/A,,Scattered Clouds,0,2013-05-07 17:53:00
12:53 PM,66.9,45.0,45,29.87,10.0,ESE,8.1,18.4,N/A,,Scattered Clouds,120,2013-05-07 18:53:00
1:53 PM,68.0,43.0,40,29.85,10.0,ESE,11.5,16.1,N/A,,Scattered Clouds,120,2013-05-07 19:53:00
2:53 PM,68.0,43.0,40,29.83,10.0,Variable,3.5,-,N/A,,Partly Cloudy,0,2013-05-07 20:53:00
3:53 PM,68.0,42.1,39,29.83,10.0,SE,6.9,-,N/A,,Partly Cloudy,140,2013-05-07 21:53:00
4:53 PM,66.0,42.1,42,29.84,10.0,SSE,8.1,-,N/A,Thunderstorm,Clear,150,2013-05-07 22:53:00
5:44 PM,59.0,37.4,45,29.92,10.0,West,17.3,28.8,N/A,Thunderstorm,Mostly Cloudy,280,2013-05-07 23:44:00
5:53 PM,59.0,37.9,46,29.88,10.0,WNW,20.7,26.5,N/A,,Overcast,300,2013-05-07 23:53:00
6:53 PM,55.9,44.1,64,29.90,8.0,South,8.1,-,0.02,Rain,Light Rain,190,2013-05-08 00:53:00
7:53 PM,55.9,43.0,62,29.86,10.0,South,6.9,-,0.00,,Mostly Cloudy,180,2013-05-08 01:53:00
8:53 PM,48.9,41.0,74,29.87,10.0,SW,9.2,-,N/A,,Partly Cloudy,230,2013-05-08 02:53:00
9:53 PM,54.0,42.1,64,29.89,10.0,NE,12.7,-,N/A,,Overcast,50,2013-05-08 03:53:00
10:53 PM,52.0,43.0,71,29.90,10.0,East,6.9,-,N/A,,Mostly Cloudy,90,2013-05-08 04:53:00
11:53 PM,50.0,42.1,74,29.91,10.0,ENE,8.1,-,N/A,,Clear,60,2013-05-08 05:53:00